User: anonymous
Location: Trois-Rivi�res
(46.3500°N, 72.5500°W)
Time: 09:53:33
(UTC-04:00)
Language:

Cosmos 1975 - Orbit

View from above orbital plane
View from above orbital plane
View from above satellite
View from above satellite

Ground track
Ground track

The orbit data is extracted from the following two-line orbital elements,

1 19573U 88093A   14213.17823554  .00001797  00000-0  14023-3 0  2630
2 19573 082.5223 280.3866 0014277 269.0863 090.8726 15.00523544401946
Epoch (UTC): 01 August 2014 04:16:39
Eccentricity: 0.0014277
inclination: 82.5223°
perigee height: 555 km
apogee height: 575 km
right ascension of ascending node: 280.3866°
argument of perigee: 269.0863°
revolutions per day: 15.00523544
mean anomaly at epoch: 90.8726°
orbit number at epoch: 40194

The dashed part of the orbit path shows where the satellite is in the earth's shadow,  

DLR